Find Kosmos-2341

NORAD ID: 24772 Int'l Des: 1997-017 Owner: VMFR Country: RU operational
LEOCIRCULARPOLAR

Live Position

Loading 3D Globe...

About Kosmos-2341

Description loading...

Upcoming Passes

Passes for default location (London). Set your location on the main map for personalized predictions.

Altitude History

Loading altitude history...

Two-Line Element Set

1 24772U 97017A 26106.92672914 .00000068 00000-0 58662-4 0 9996
2 24772 82.9244 170.1133 0026919 73.1920 100.3929 13.71622188650675
Epoch: Apr 16, 2026 • Age: 13 hours

Current Status

Altitude 983.6 km
Velocity 7.37 km/s
Sub-Earth Point 53.56°N, 158.71°E
Launch Date Apr 17, 1997
Age 28.9 years
Type other

Technical Details

Classification Payload
Mass 800.00 kg
Dry Mass 800.00 kg
Total Mass 800.00 kg
Length 5.00 m
Diameter 2.10 m
Span 17.00 m
Shape Cyl + Ant
Manufacturer POL
Bus Type KAUR-1 11F627
Phase Status Unknown Transfer Status
Owner/State VMFR/RU

Most Searched